Location: Unspecified
(0.0000°N, 0.0000°E)
Time: 08:51:55
(UTC+00:00)

CZ-3C DEB - Pass Details

Date: 06 March 2026
Orbit: 509 x 34331 km, 19.9° (Epoch: 18 April)

Event Time Altitude Azimuth Distance (km) Brightness Sun altitude
Rises 02:01:55 0° 250° (WSW) 19,401 ? -61.8°
Reaches altitude 10° 02:31:47 10° 248° (WSW) 23,879 ? -54.5°
Maximum altitude 03:36:44 16° 248° (WSW) 31,743 ? -38.4°
Drops below altitude 10° 05:17:35 10° 252° (WSW) 38,529 ? -13.4°
Sets 06:58:10 0° 255° (WSW) 39,206 ? 11.7°
